NJE816 EDXW-EDDH

Flight info

Callsign NJE816
Flight time N/A
Altitude 9000
Route OLDIP1A/14 OLDIP DCT BADOS DCT RENSU DCT BOGMU BOGMU5A
Aircraft C750/M-SBDE3FGHRWXY/S

Departure

Time 2026-04-20 15:21
Airport Westerland Sylt Airport (EDXW)

Arrival

Time N/A
Airport Hamburg Helmut Schmidt Airport (EDDH)
Time Latitude Longitude Altitude Speed Heading
2026-04-20 15:07 54.91252 8.32522 25 ft 0 kts 243°
2026-04-20 15:16 54.91252 8.32520 24 ft 0 kts 243°
2026-04-20 15:16 54.91250 8.32518 24 ft 0 kts 226°
2026-04-20 15:16 54.91242 8.32524 26 ft 3 kts 143°
2026-04-20 15:17 54.91200 8.32583 24 ft 10 kts 143°
2026-04-20 15:17 54.91142 8.32653 24 ft 10 kts 147°
2026-04-20 15:17 54.91091 8.32725 24 ft 9 kts 121°
2026-04-20 15:17 54.91070 8.32837 26 ft 10 kts 113°
2026-04-20 15:18 54.91050 8.32911 28 ft 10 kts 116°
2026-04-20 15:18 54.91012 8.33024 30 ft 11 kts 104°
2026-04-20 15:18 54.91047 8.33155 30 ft 14 kts 39°
2026-04-20 15:18 54.91151 8.33179 31 ft 17 kts 360°
2026-04-20 15:19 54.91277 8.33190 27 ft 19 kts 23°
2026-04-20 15:19 54.91400 8.33247 25 ft 18 kts 348°
2026-04-20 15:19 54.91511 8.33176 26 ft 16 kts
2026-04-20 15:19 54.91608 8.33175 31 ft 12 kts
2026-04-20 15:20 54.91685 8.33176 32 ft 11 kts 359°
2026-04-20 15:20 54.91759 8.33175 32 ft 11 kts
2026-04-20 15:20 54.91845 8.33212 32 ft 14 kts 21°
2026-04-20 15:20 54.91889 8.33331 32 ft 13 kts 109°
2026-04-20 15:21 54.91720 8.33558 33 ft 78 kts 144°
2026-04-20 15:21 54.91036 8.34383 195 ft 138 kts 141°
2026-04-20 15:21 54.90185 8.35301 644 ft 153 kts 141°
2026-04-20 15:21 54.89255 8.36226 1495 ft 154 kts 143°
2026-04-20 15:22 54.88311 8.37227 2217 ft 162 kts 133°
2026-04-20 15:22 54.87519 8.38657 2977 ft 169 kts 130°
2026-04-20 15:22 54.86571 8.39987 3777 ft 182 kts 136°
2026-04-20 15:22 54.85441 8.41394 3975 ft 220 kts 139°
2026-04-20 15:23 54.84083 8.43042 4148 ft 254 kts 140°
2026-04-20 15:23 54.82646 8.44775 5420 ft 248 kts 140°
2026-04-20 15:23 54.81231 8.46514 6580 ft 251 kts 140°
2026-04-20 15:23 54.79798 8.48288 7719 ft 255 kts 140°
2026-04-20 15:24 54.78416 8.49990 8857 ft 259 kts 140°